Terug naar catalogus

STARLINK-31805

ActiefCommunicatieVLEO
NORAD 59745·PAYLOAD·🇺🇸 United States

Gelanceerd May 13, 2024 vanaf Cape Canaveral Space Force Station

Loading…

Volgende Passages (komende 24 uur)

TLE

VersSource: CelesTrak SupGP

Epoch: Sep 15, 2026, 03:18 UTC

1 59745C 24090R   26258.13798611 -.00031052  00000+0 -11249-2 0  2583
2 59745  42.9998 193.2346 0001187 275.1498 239.4610 15.27588322    13

Volg STARLINK-31805 in realtime met AllMySat

Download on the App Store